Regional Weather Roundup
Issued by NWS

Home | Current Version | Previous Version | Text Only | Print | Product List | Glossary Off
Versions: 1 2 3 4 5 6 7 8 9 10 11 12 13 14 15 16 17 18 19 20 21 22 23 24 25 26 27 28 29 30 31 32 33 34 35 36 37 38 39 40 41 42 43 44 45 46 47 48 49 50

510
ASUS43 KDMX 250001
RWRIA

WEATHER ROUNDUP FOR IOWA
NATIONAL WEATHER SERVICE DES MOINES IA
700 PM CDT TUE APR 24 2018

NOTE: "FAIR" INDICATES FEW OR NO CLOUDS BELOW 12,000 FEET WITH NO
SIGNIFICANT WEATHER AND/OR OBSTRUCTIONS TO VISIBILITY.

* - THESE STATIONS ARE NOT NWS STATIONS...THUS NOT UNDER NWS
QUALITY CONTROL.  THEY ALSO DO NOT REPORT WEATHER SUCH
AS PRECIPITATION OR FOG.

IAZ001>003-012>014-020>022-031>034-043>046-250100-
   NORTHWEST IOWA

CITY           SKY/WX    TMP DP  RH WIND       PRES   REMARKS
CARROLL *      CLOUDY    57  43  58 N24       30.14R
CHEROKEE *     DRIZZLE   49  46  87 N9G16     30.20S
DENISON *      CLOUDY    57  43  58 N15G23    30.17R
LE MARS *      LGT RAIN  50  46  87 N13G21    30.23R
ORANGE CITY *  LGT RAIN  48  46  93 N14G20    30.23R
SHELDON *      CLOUDY    46  45  93 N16       30.22R
SIOUX CITY     LGT RAIN  50  44  80 N10       30.22R
6HR MIN TEMP:  50; 6HR MAX TEMP:  63; 6HR PCP:  0.02;

SPENCER        CLOUDY    49  42  77 N18G28    30.21S
6HR MIN TEMP:  49; 6HR MAX TEMP:  62; 6HR PCP: TRACE;

STORM LAKE *   CLOUDY    50  43  76 N18G24    30.19R
$$

IAZ055>058-069>071-079>083-090>094-250100-
   SOUTHWEST IOWA

CITY           SKY/WX    TMP DP  RH WIND       PRES   REMARKS
ATLANTIC *     CLOUDY    63  45  51 N21G31    30.11R
AUDUBON *      CLOUDY    61  46  59 N20       30.14R
CLARINDA *     CLOUDY    66  43  42 N21G30    30.11S
COUNCIL BLFS * CLOUDY    59  46  63 NW14G21   30.16R
CRESTON *      CLOUDY    68  39  34 NE10G17   30.08S
HARLAN  *      CLOUDY    63  43  48 N16G23    30.17R
LAMONI         PTSUNNY   69  38  32 N8        30.05S
6HR MIN TEMP:  69; 6HR MAX TEMP:  76;

RED OAK *      CLOUDY    64  41  42 NW20G26   30.12R
SHENANDOAH *   CLOUDY    64  45  48 NW16G30   30.13R
$$

IAZ047>049-059>061-072>074-084-250100-
   CENTRAL IOWA

CITY           SKY/WX    TMP DP  RH WIND       PRES   REMARKS
AMES           CLOUDY    64  45  49 N17       30.09R
6HR MIN TEMP:  64; 6HR MAX TEMP:  75;

ANKENY *       MOSUNNY   66  45  45 N16G28    30.09R
BOONE *        CLOUDY    61  46  59 N21G28    30.10R
CHARITON *     MOSUNNY   68  39  34 N14       30.05R
DES MOINES     PTSUNNY   69  41  36 N12       30.07S
6HR MIN TEMP:  69; 6HR MAX TEMP:  75;

GRINNELL*      PTSUNNY   68  40  34 NW15      30.06S
KNOXVILLE *    PTSUNNY   70  39  32 N12G18    30.04S
MARSHALLTOWN   MOSUNNY   65  47  52 N21G28    30.06F
6HR MIN TEMP:  65; 6HR MAX TEMP:  73;

NEWTON *       MOSUNNY   66  41  39 N15       30.06S
PELLA *        CLOUDY    70  38  31 N13G20    30.06R
$$

IAZ004>006-015-016-023>025-035-036-250100-
   NORTH CENTRAL IOWA

CITY           SKY/WX    TMP DP  RH WIND       PRES   REMARKS
ALGONA *       CLOUDY    52  45  76 N15G21    30.17R
CLARION *      CLOUDY    57  43  58 N17G28    30.13R
ESTHERVILLE    CLOUDY    47  43  86 N17G26    30.19R
6HR MIN TEMP:  47; 6HR MAX TEMP:  58;

FORT DODGE *   CLOUDY    55  42  61 N8G18     30.16R
MASON CITY     CLOUDY    57  41  55 N20       30.12S
6HR MIN TEMP:  57; 6HR MAX TEMP:  70;

FOREST CITY *  CLOUDY    55  41  58 N17       30.14S
WEBSTER CITY * CLOUDY    57  45  62 N17G24    30.11R
IOWA FALLS *   PTSUNNY   63  48  58 NW15      30.10S
$$

IAZ007>011-017>019-026>030-037>042-050>054-066-250100-
   NORTHEAST IOWA

CITY           SKY/WX    TMP DP  RH WIND       PRES   REMARKS
CEDAR RAPIDS   CLOUDY    71  37  28 N16       30.01S
6HR MIN TEMP:  71; 6HR MAX TEMP:  77;

CHARLES CITY * PTSUNNY   63  43  48 N17       30.08F
CLINTON *      CLOUDY    72  32  23 N13       29.99S
DECORAH *      CLOUDY    64  41  42 N15       30.05R
DUBUQUE        MOCLDY    69  34  27 N10       30.01R
6HR MIN TEMP:  67; 6HR MAX TEMP:  73;

MONTICELLO *   CLOUDY    70  36  28 NW12      30.00S
OELWEIN *      FAIR      66  43  42 N13       30.06R
WATERLOO       PTSUNNY   63  45  51 N15       30.06R
6HR MIN TEMP:  63; 6HR MAX TEMP:  73;

$$

IAZ064-065-067-068-078-250100-
   EAST CENTRAL IOWA

CITY           SKY/WX    TMP DP  RH WIND       PRES   REMARKS
DAVENPORT      FAIR      72  27  18 N13       30.00S
6HR MIN TEMP:  71; 6HR MAX TEMP:  76;

IOWA CITY      MOCLDY    73  31  21 NW13      30.01F
6HR MIN TEMP:  71; 6HR MAX TEMP:  76;

MT. PLEASANT * PTCLDY    70  30  23 N8        30.00S
MUSCATINE *    FAIR      72  30  21 N5        29.99S
QUAD CITIES    FAIR      72  30  21 N9        29.97S
6HR MIN TEMP:  72; 6HR MAX TEMP:  77;

$$

IAZ062-063-075>077-085>089-095>099-250100-
   SOUTHEAST IOWA

CITY           SKY/WX    TMP DP  RH WIND       PRES   REMARKS
BURLINGTON     CLEAR     70  30  22 N8        29.98F
6HR MIN TEMP:  70; 6HR MAX TEMP:  76;

FAIRFIELD *    CLOUDY    72  30  21 N13G20    30.00F
FORT MADISON * PTCLDY    70  34  26 N7        30.00S
KEOKUK *       CLEAR     70  30  23 N8        29.99S
OSKALOOSA *    FAIR      70  35  27 N14G22    30.03S
CENTERVILLE *  FAIR      68  32  26 NW10      30.05S
OTTUMWA        PTSUNNY   70  33  25 N16       30.02S
6HR MIN TEMP:  70; 6HR MAX TEMP:  76;

WASHINGTON *   MOCLDY    72  32  23 NW14      30.01S
$$

ABBREVIATIONS USED IN REMARKS
   TC - TEMPERATURES IN CELSIUS
  WCI - WIND CHILL INDEX
   HX - HEAT INDEX
  VSB - VISIBILITY
$$





USA.gov is the U.S. government's official web portal to all federal, state and local government web resources and services.